WA2GUG Weather Reports


time (UTC)temp
C
wind
direction
speed
KPH
gust
KPH
rain 1hr
cm
rain 24hr
cm
rain mn
cm
humidity
%
barometer
mb
20260510030929 -17 216 0.0 0.0 0.00 0.00 0.00 99 1007.0
20260510030429 -17 263 0.0 0.0 0.00 0.00 0.00 99 1007.0
20260510025929 -17 208 0.0 0.0 0.00 0.00 0.00 99 1007.0
20260510025429 -17 171 0.0 0.0 0.00 0.00 0.00 99 1007.0
20260510024929 -17 191 0.0 0.0 0.00 0.00 0.00 99 1007.0
20260510024429 -17 257 0.0 0.0 0.00 0.00 0.00 99 1007.0
20260510023929 -17 233 0.0 0.0 0.00 0.00 0.00 99 1007.0
20260510023429 -17 235 0.0 0.0 0.00 0.00 0.00 99 1007.0
20260510022929 -17 257 0.0 0.0 0.00 0.00 0.00 99 1007.0
20260510022429 -17 256 0.0 0.0 0.00 0.00 0.00 99 1007.0
20260510021929 -17 262 0.0 0.0 0.00 0.00 0.00 99 1007.0
20260510021429 -17 223 0.0 0.0 0.00 0.00 0.00 99 1007.0
20260510020929 -17 232 0.0 0.0 0.00 0.00 0.00 99 1007.0
20260510020428 -17 223 0.0 0.0 0.00 0.00 0.00 99 1007.0
20260510015928 -17 178 0.0 0.0 0.00 0.00 0.00 99 1007.0
20260510015428 -17 209 0.0 0.0 0.00 0.00 0.00 99 1007.0
20260510014928 -17 186 0.0 0.0 0.00 0.00 0.00 99 1007.0
20260510014429 -17 171 0.0 0.0 0.00 0.00 0.00 99 1007.0
20260510013928 -17 217 0.0 0.0 0.00 0.00 0.00 99 1006.2
20260510013429 -17 254 0.0 0.0 0.00 0.00 0.00 99 1007.0
20260510012928 -17 239 0.0 0.0 0.00 0.00 0.00 99 1007.0
20260510012428 -17 195 0.0 0.0 0.00 0.00 0.00 99 1006.2
20260510011929 -17 227 0.0 0.0 0.00 0.00 0.00 99 1007.0
20260510011428 -17 184 0.0 0.0 0.00 0.00 0.00 99 1007.0
20260510010928 -17 286 0.0 0.0 0.00 0.00 0.00 99 1007.0
20260510010428 -17 234 0.0 0.0 0.00 0.00 0.00 99 1007.0
20260510005928 -17 235 0.0 0.0 0.00 0.00 0.00 99 1007.0
20260510005428 -17 251 0.0 0.0 0.00 0.00 0.00 99 1007.0
20260510004928 -17 242 0.0 0.0 0.00 0.00 0.00 99 1007.0
20260510004428 -17 238 0.0 0.0 0.00 0.00 0.00 99 1007.0
20260510003928 -17 268 0.0 0.0 0.00 0.00 0.00 99 1007.0
20260510003429 -17 252 0.0 1.6 0.00 0.00 0.00 99 1007.0
20260510002928 -17 249 0.0 3.2 0.00 0.00 0.00 99 1006.1
20260510002428 -17 230 0.0 3.2 0.00 0.00 0.00 99 1006.0
20260510001928 -17 224 0.0 4.8 0.00 0.00 0.00 99 1006.0
20260510001428 -17 215 0.0 6.4 0.00 0.00 0.00 99 1006.0
20260510000928 -17 227 0.0 6.4 0.00 0.00 0.00 99 1006.0
20260510000428 -17 229 0.0 4.8 0.00 0.00 0.00 99 1006.0
20260509235928 -17 249 0.0 4.8 0.00 0.00 0.00 99 1006.0
20260509235428 -17 260 0.0 4.8 0.00 0.00 0.00 99 1006.0
20260509234928 -17 244 0.0 4.8 0.00 0.00 0.00 99 1006.0
20260509234428 -17 237 1.6 6.4 0.00 0.00 0.00 99 1006.0
20260509233928 -17 241 1.6 6.4 0.00 0.00 0.00 99 1006.0
20260509233429 -17 236 0.0 6.4 0.00 0.00 0.00 99 1005.2
20260509232928 -17 225 1.6 6.4 0.00 0.00 0.00 99 1006.0
20260509232428 -17 227 0.0 3.2 0.00 0.00 0.00 99 1005.2
20260509231928 -17 264 0.0 4.8 0.00 0.00 0.00 99 1005.2
20260509231428 -17 256 1.6 4.8 0.00 0.00 0.00 99 1005.2
20260509230928 -17 260 0.0 3.2 0.00 0.00 0.00 99 1005.2
20260509230428 -17 274 0.0 4.8 0.00 0.00 0.00 99 1005.2
20260509225928 -17 260 0.0 6.4 0.00 0.00 0.00 99 1005.2
20260509225428 -17 226 1.6 6.4 0.00 0.00 0.00 99 1006.0
20260509224928 -17 269 0.0 6.4 0.00 0.00 0.00 99 1006.0
20260509224428 -17 237 1.6 6.4 0.00 0.00 0.00 99 1006.0
20260509223928 -17 258 1.6 6.4 0.00 0.00 0.00 99 1006.0
20260509223428 -17 217 1.6 6.4 0.00 0.00 0.00 99 1005.2
20260509222928 -17 233 1.6 6.4 0.00 0.00 0.00 99 1005.2
20260509222428 -17 176 1.6 6.4 0.00 0.00 0.00 99 1005.2
20260509221928 -17 158 1.6 4.8 0.00 0.00 0.00 99 1006.0
20260509221428 -17 242 0.0 6.4 0.00 0.00 0.00 99 1006.0
20260509220928 -17 268 1.6 6.4 0.00 0.00 0.00 99 1006.0
20260509220428 -17 158 1.6 6.4 0.00 0.00 0.00 99 1005.2
20260509215928 -17 232 0.0 0.0 0.00 0.00 0.00 99 1006.0
20260509215428 -17 255 0.0 0.0 0.00 0.00 0.00 99 1006.0
20260509214928 -17 220 0.0 0.0 0.00 0.00 0.00 99 1006.0
20260509214428 -17 245 0.0 0.0 0.00 0.00 0.00 99 1006.0
20260509213928 -17 321 0.0 0.0 0.00 0.00 0.00 99 1006.0
20260509213428 -17 216 0.0 0.0 0.00 0.00 0.00 99 1005.2
20260509212928 -17 267 0.0 0.0 0.00 0.00 0.00 99 1006.0
20260509212428 -17 180 0.0 0.0 0.00 0.00 0.00 99 1005.2
20260509211928 -17 252 0.0 0.0 0.00 0.00 0.00 99 1006.0
20260509211428 -17 220 0.0 0.0 0.00 0.00 0.00 99 1005.2
20260509210928 -17 252 0.0 0.0 0.00 0.00 0.00 99 1006.0
20260509210428 -17 227 0.0 0.0 0.00 0.00 0.00 99 1006.0
20260509205928 -17 221 0.0 0.0 0.00 0.00 0.00 99 1005.2
20260509205428 -17 226 0.0 0.0 0.00 0.00 0.00 99 1006.0
20260509204928 -17 219 0.0 0.0 0.00 0.00 0.00 99 1006.0
20260509204428 -17 268 0.0 0.0 0.00 0.00 0.00 99 1006.0
20260509203928 -17 219 0.0 0.0 0.00 0.00 0.00 99 1006.0
20260509203428 -17 266 0.0 0.0 0.00 0.00 0.00 99 1006.0
20260509202928 -17 259 0.0 0.0 0.00 0.00 0.00 99 1006.0
20260509202428 -17 240 0.0 0.0 0.00 0.00 0.00 99 1006.0
20260509201928 -17 208 0.0 0.0 0.00 0.00 0.00 99 1006.0
20260509201428 -17 216 0.0 0.0 0.00 0.00 0.00 99 1006.0
20260509200928 -17 187 0.0 0.0 0.00 0.00 0.00 99 1006.0
20260509200428 -17 215 0.0 0.0 0.00 0.00 0.00 99 1006.1
20260509195928 -17 227 0.0 0.0 0.00 0.00 0.00 99 1006.1
20260509195428 -17 227 0.0 0.0 0.00 0.00 0.00 99 1006.2
20260509194928 -17 258 0.0 0.0 0.00 0.00 0.00 99 1006.2
20260509194428 -17 236 0.0 4.8 0.00 0.00 0.00 99 1007.0
20260509193928 -17 231 1.6 4.8 0.00 0.00 0.00 99 1006.2
20260509193428 -17 222 3.2 4.8 0.00 0.00 0.00 99 1007.0
20260509192928 -17 220 3.2 8.0 0.00 0.00 0.00 99 1007.0
20260509192428 -17 217 1.6 8.0 0.00 0.00 0.00 99 1007.0
20260509191928 -17 222 1.6 6.4 0.00 0.00 0.00 99 1006.2
20260509191428 -17 232 1.6 6.4 0.00 0.00 0.00 99 1007.0
20260509190928 -17 226 1.6 6.4 0.00 0.00 0.00 99 1007.0
20260509190428 -17 234 1.6 6.4 0.00 0.00 0.00 99 1006.2
20260509185928 -17 252 1.6 4.8 0.00 0.00 0.00 99 1007.0
20260509185428 -17 232 0.0 0.0 0.00 0.00 0.00 99 1006.2
20260509184928 -17 235 0.0 0.0 0.00 0.00 0.00 99 1006.2
20260509184428 -17 247 0.0 0.0 0.00 0.00 0.00 99 1006.2
20260509183928 -17 257 0.0 0.0 0.00 0.00 0.00 99 1007.0
20260509183428 -17 220 0.0 0.0 0.00 0.00 0.00 99 1007.0
20260509182928 -17 236 0.0 0.0 0.00 0.00 0.00 99 1007.0
20260509182428 -17 228 0.0 0.0 0.00 0.00 0.00 99 1007.0
20260509181928 -17 188 0.0 0.0 0.00 0.00 0.00 99 1007.0
20260509181428 -17 231 0.0 0.0 0.00 0.00 0.00 99 1006.2
20260509180928 -17 215 0.0 0.0 0.00 0.00 0.00 99 1007.0
20260509180428 -17 222 0.0 0.0 0.00 0.00 0.00 99 1006.2
20260509175928 -17 258 0.0 0.0 0.00 0.00 0.00 99 1006.2
20260509175428 -17 230 0.0 0.0 0.00 0.00 0.00 99 1007.0
20260509174928 -17 226 0.0 0.0 0.00 0.00 0.00 99 1006.2
20260509174428 -17 218 0.0 0.0 0.00 0.00 0.00 99 1007.0
20260509173928 -17 272 0.0 0.0 0.00 0.00 0.00 99 1006.2
20260509173428 -17 223 0.0 0.0 0.00 0.00 0.00 99 1006.2
20260509172928 -17 219 0.0 0.0 0.00 0.00 0.00 99 1006.2
20260509172428 -17 228 0.0 0.0 0.00 0.00 0.00 99 1006.2
20260509171928 -17 266 0.0 0.0 0.00 0.00 0.00 99 1007.0
20260509171428 -17 220 0.0 6.4 0.00 0.00 0.00 99 1007.0
20260509170928 -17 225 0.0 6.4 0.00 0.00 0.00 99 1007.0
20260509170428 -17 239 0.0 0.0 0.00 0.00 0.00 99 1007.1
20260509165928 -17 266 0.0 0.0 0.00 0.00 0.00 99 1007.2
20260509165428 -17 227 0.0 0.0 0.00 0.00 0.00 99 1007.2
20260509164928 -17 255 0.0 0.0 0.00 0.00 0.00 99 1007.2
20260509164428 -17 231 0.0 0.0 0.00 0.00 0.00 99 1007.2
20260509163928 -17 271 0.0 0.0 0.00 0.00 0.00 99 1007.2
20260509163428 -17 263 0.0 0.0 0.00 0.00 0.00 99 1007.2
20260509162928 -17 272 0.0 0.0 0.00 0.00 0.00 99 1007.2
20260509162428 -17 253 0.0 0.0 0.00 0.00 0.00 99 1007.2
20260509161928 -17 257 0.0 0.0 0.00 0.00 0.00 99 1008.0
20260509161428 -17 282 0.0 0.0 0.00 0.00 0.00 99 1007.2
20260509160928 -17 277 0.0 0.0 0.00 0.00 0.00 99 1007.2
20260509160428 -17 274 0.0 0.0 0.00 0.00 0.00 99 1007.2
20260509155928 -17 184 0.0 0.0 0.00 0.00 0.00 99 1007.2
20260509155428 -17 50 0.0 0.0 0.00 0.00 0.00 99 1007.2
20260509154928 -17 134 0.0 0.0 0.00 0.00 0.00 99 1007.2
20260509154428 -17 132 0.0 0.0 0.00 0.00 0.00 99 1007.2
20260509153928 -17 135 0.0 0.0 0.00 0.00 0.00 99 1007.2
20260509153428 -17 100 0.0 0.0 0.00 0.00 0.00 99 1007.2
20260509152928 -17 333 0.0 0.0 0.00 0.00 0.00 99 1008.0
20260509152428 -17 267 0.0 0.0 0.00 0.00 0.00 99 1007.2
20260509151928 -17 139 0.0 0.0 0.00 0.00 0.00 99 1008.0
20260509151428 -17 55 0.0 0.0 0.00 0.00 0.00 99 1007.2
20260509150928 -17 41 0.0 0.0 0.00 0.00 0.00 99 1008.0
20260509150428 -17 246 0.0 0.0 0.00 0.00 0.00 99 1008.0
20260509145928 -17 89 0.0 0.0 0.00 0.00 0.00 99 1008.0
20260509145428 -17 311 0.0 0.0 0.00 0.00 0.00 99 1008.0
20260509144928 -17 207 0.0 0.0 0.00 0.00 0.00 99 1008.0
20260509144428 -17 144 0.0 0.0 0.00 0.00 0.00 99 1007.2
20260509143928 -17 91 0.0 0.0 0.00 0.00 0.00 99 1008.0
20260509143428 -17 90 0.0 0.0 0.00 0.00 0.00 99 1008.0
20260509142928 -17 35 0.0 0.0 0.00 0.00 0.00 99 1008.0
20260509142428 -17 270 0.0 0.0 0.00 0.00 0.00 99 1008.0
20260509141928 -17 7 0.0 0.0 0.00 0.00 0.00 99 1008.0
20260509141428 -17 63 0.0 0.0 0.00 0.00 0.00 99 1008.0
20260509140928 -17 14 0.0 0.0 0.00 0.00 0.00 99 1008.0
20260509140428 -17 229 0.0 0.0 0.00 0.00 0.00 99 1008.0
20260509135928 -17 280 0.0 0.0 0.00 0.00 0.00 99 1008.0
20260509135428 -17 47 0.0 0.0 0.00 0.00 0.00 99 1008.0
20260509134928 -17 55 0.0 0.0 0.00 0.00 0.00 99 1008.0
20260509134428 -17 358 0.0 0.0 0.00 0.00 0.00 99 1008.0
20260509133928 -17 78 0.0 0.0 0.00 0.00 0.00 99 1008.0
20260509133428 -17 194 0.0 0.0 0.00 0.00 0.00 99 1008.0
20260509132928 -17 37 0.0 0.0 0.00 0.00 0.00 99 1008.0
20260509132428 -17 80 0.0 0.0 0.00 0.00 0.00 99 1008.0
20260509131928 -17 294 0.0 0.0 0.00 0.00 0.00 99 1008.0
20260509131428 -17 57 0.0 0.0 0.00 0.00 0.00 99 1008.0
20260509130928 -17 262 0.0 0.0 0.00 0.00 0.00 99 1008.0
20260509130428 -17 358 0.0 0.0 0.00 0.00 0.00 99 1008.0
20260509125928 -17 15 0.0 0.0 0.00 0.00 0.00 99 1008.0
20260509125428 -17 351 0.0 0.0 0.00 0.00 0.00 99 1008.0
20260509124928 -17 9 0.0 0.0 0.00 0.00 0.00 99 1008.0
20260509124428 -17 260 0.0 0.0 0.00 0.00 0.00 99 1008.1
20260509123928 -17 240 0.0 0.0 0.00 0.00 0.00 99 1008.2
20260509123428 -17 265 0.0 0.0 0.00 0.00 0.00 99 1008.2
20260509122928 -17 32 0.0 0.0 0.00 0.00 0.00 99 1008.2
20260509122428 -17 11 0.0 0.0 0.00 0.00 0.00 99 1008.2
20260509121928 -17 57 0.0 0.0 0.00 0.00 0.00 99 1008.2
20260509121428 -17 45 0.0 0.0 0.00 0.00 0.00 99 1008.2
20260509120927 -17 99 0.0 0.0 0.00 0.00 0.00 99 1009.0
20260509120428 5 58 0.0 0.0 0.00 0.00 0.00 99 1009.0
20260509115928 -17 102 0.0 0.0 0.00 0.00 0.00 99 1008.2
20260509115427 -17 56 0.0 0.0 0.00 0.00 0.00 99 1008.2
20260509114927 5 110 0.0 0.0 0.00 0.00 0.00 99 1008.2
20260509114427 5 58 0.0 0.0 0.00 0.00 0.00 99 1008.2
20260509113927 5 15 0.0 0.0 0.00 0.00 0.00 99 1009.0
20260509113428 5 311 0.0 0.0 0.00 0.00 0.00 99 1008.2
20260509112927 5 296 0.0 0.0 0.00 0.00 0.00 99 1009.0
20260509112427 5 359 0.0 0.0 0.00 0.00 0.00 99 1008.2
20260509111927 5 351 0.0 0.0 0.00 0.00 0.00 99 1008.2
20260509111427 5 303 0.0 0.0 0.00 0.00 0.00 99 1008.2
20260509110927 5 255 0.0 0.0 0.00 0.00 0.00 99 1009.0
20260509110427 5 135 0.0 0.0 0.00 0.00 0.00 99 1009.0
20260509105927 5 164 0.0 0.0 0.00 0.00 0.00 99 1009.0
20260509105427 4 180 0.0 0.0 0.00 0.00 0.00 99 1008.2
20260509104927 4 211 0.0 0.0 0.00 0.00 0.00 99 1008.2
20260509104427 4 218 0.0 0.0 0.00 0.00 0.00 99 1009.0
20260509103927 4 219 0.0 0.0 0.00 0.00 0.00 99 1008.2
20260509103428 4 275 0.0 0.0 0.00 0.00 0.00 99 1009.0
20260509102927 4 234 0.0 0.0 0.00 0.00 0.00 99 1008.2
20260509102427 4 190 0.0 0.0 0.00 0.00 0.00 99 1008.2
20260509101927 4 303 0.0 0.0 0.00 0.00 0.00 99 1009.0
20260509101427 4 217 0.0 0.0 0.00 0.00 0.00 99 1009.0
20260509100927 4 225 0.0 0.0 0.00 0.00 0.00 99 1008.2
20260509100427 3 193 0.0 0.0 0.00 0.00 0.00 99 1009.0
20260509095927 3 192 0.0 0.0 0.00 0.00 0.00 99 1009.0
20260509095427 3 251 0.0 0.0 0.00 0.00 0.00 99 1009.0
20260509094927 3 275 0.0 0.0 0.00 0.00 0.00 99 1009.0
20260509094427 3 240 0.0 0.0 0.00 0.00 0.00 99 1009.0
20260509093927 3 204 0.0 0.0 0.00 0.00 0.00 99 1008.2
20260509093428 3 207 0.0 0.0 0.00 0.00 0.00 99 1009.0
20260509092927 3 160 0.0 0.0 0.00 0.00 0.00 99 1009.0
20260509092427 3 135 0.0 0.0 0.00 0.00 0.00 99 1009.0
20260509091927 3 216 0.0 0.0 0.00 0.00 0.00 99 1008.2
20260509091427 3 45 0.0 0.0 0.00 0.00 0.00 99 1009.0
20260509090927 3 239 0.0 0.0 0.00 0.00 0.00 99 1008.2
20260509090427 3 267 0.0 0.0 0.00 0.00 0.00 99 1009.0
20260509085927 3 6 0.0 0.0 0.00 0.00 0.00 99 1008.2
20260509085427 3 146 0.0 0.0 0.00 0.00 0.00 99 1008.2
20260509084927 3 81 0.0 0.0 0.00 0.00 0.00 99 1008.2
20260509084427 3 83 0.0 0.0 0.00 0.00 0.00 99 1009.0
20260509083927 3 96 0.0 0.0 0.00 0.00 0.00 99 1009.0
20260509083427 3 354 0.0 0.0 0.00 0.00 0.00 99 1009.0
20260509082927 3 325 0.0 0.0 0.00 0.00 0.00 99 1008.2
20260509082427 3 14 0.0 0.0 0.00 0.00 0.00 99 1009.0
20260509081927 3 37 0.0 0.0 0.00 0.00 0.00 99 1008.2
20260509081427 3 121 0.0 0.0 0.00 0.00 0.00 99 1009.0
20260509080927 3 175 0.0 0.0 0.00 0.00 0.00 99 1008.2
20260509080427 3 315 0.0 0.0 0.00 0.00 0.00 99 1009.0
20260509075927 3 309 0.0 0.0 0.00 0.00 0.00 99 1008.2
20260509075427 3 305 0.0 0.0 0.00 0.00 0.00 99 1009.0
20260509074927 3 279 0.0 0.0 0.00 0.00 0.00 99 1008.2
20260509074427 3 248 0.0 0.0 0.00 0.00 0.00 99 1009.0
20260509073927 3 306 0.0 0.0 0.00 0.00 0.00 99 1008.2
20260509073427 3 12 0.0 0.0 0.00 0.00 0.00 99 1009.0
20260509072927 3 343 0.0 0.0 0.00 0.00 0.00 99 1008.2
20260509072427 3 9 0.0 0.0 0.00 0.00 0.00 99 1008.2
20260509071927 3 138 0.0 0.0 0.00 0.00 0.00 99 1008.1
20260509071427 3 136 0.0 0.0 0.00 0.00 0.00 99 1008.1
20260509070927 3 43 0.0 0.0 0.00 0.00 0.00 99 1008.2
20260509070427 2 328 0.0 0.0 0.00 0.00 0.00 99 1008.2
20260509065927 2 118 0.0 0.0 0.00 0.00 0.00 99 1008.2
20260509065427 2 59 0.0 0.0 0.00 0.00 0.00 99 1009.0
20260509064927 2 334 0.0 0.0 0.00 0.00 0.00 99 1008.1
20260509064427 2 255 0.0 0.0 0.00 0.00 0.00 99 1008.0
20260509063927 2 210 0.0 0.0 0.00 0.00 0.00 99 1008.1
20260509063427 2 345 0.0 0.0 0.00 0.00 0.00 99 1009.0
20260509062927 2 19 0.0 0.0 0.00 0.00 0.00 99 1009.0
20260509062427 2 12 0.0 0.0 0.00 0.00 0.00 99 1009.0
20260509061927 2 122 0.0 0.0 0.00 0.00 0.00 99 1008.2
20260509061427 2 129 0.0 0.0 0.00 0.00 0.00 99 1009.0
20260509060927 2 309 0.0 0.0 0.00 0.00 0.00 99 1008.2
20260509060427 1 315 0.0 0.0 0.00 0.00 0.00 99 1009.0
20260509055927 1 302 0.0 0.0 0.00 0.00 0.00 99 1008.2
20260509055427 1 148 0.0 0.0 0.00 0.00 0.00 99 1009.0
20260509054927 1 148 0.0 0.0 0.00 0.00 0.00 99 1008.2
20260509054427 1 135 0.0 0.0 0.00 0.00 0.00 99 1009.0
20260509053927 1 135 0.0 0.0 0.00 0.00 0.00 99 1008.2
20260509053427 1 135 0.0 0.0 0.00 0.00 0.00 99 1009.0
20260509052927 1 135 0.0 0.0 0.00 0.00 0.00 99 1008.2
20260509052427 0 138 0.0 0.0 0.00 0.00 0.00 99 1009.0
20260509051927 0 207 0.0 0.0 0.00 0.00 0.00 99 1009.0
20260509051427 0 164 0.0 0.0 0.00 0.00 0.00 99 1009.0
20260509050927 0 157 0.0 0.0 0.00 0.00 0.00 99 1009.0
20260509050427 1 157 0.0 0.0 0.00 0.00 0.00 99 1009.0
20260509045927 1 157 0.0 0.0 0.00 0.00 0.00 99 1008.2
20260509045427 1 142 0.0 0.0 0.00 0.00 0.00 99 1009.0
20260509044927 1 135 0.0 0.0 0.00 0.00 0.00 99 1009.0
20260509044427 1 179 0.0 0.0 0.00 0.00 0.00 99 1009.0
20260509043927 1 180 0.0 0.0 0.00 0.00 0.00 99 1009.0
20260509043427 2 180 0.0 0.0 0.00 0.00 0.00 99 1009.0
20260509042927 2 169 0.0 0.0 0.00 0.00 0.00 99 1009.0
20260509042427 2 135 0.0 0.0 0.00 0.00 0.00 99 1009.0
20260509041927 2 123 0.0 0.0 0.00 0.00 0.00 99 1009.0
20260509041427 2 358 0.0 0.0 0.00 0.00 0.00 99 1009.0
20260509040927 2 45 0.0 0.0 0.00 0.00 0.00 99 1009.0
20260509040427 2 112 0.0 0.0 0.00 0.00 0.00 99 1009.0
20260509035927 2 127 0.0 0.0 0.00 0.00 0.00 99 1009.0
20260509035427 2 106 0.0 0.0 0.00 0.00 0.00 99 1009.0
20260509034927 1 156 0.0 0.0 0.00 0.00 0.00 99 1008.2
20260509034427 1 168 0.0 0.0 0.00 0.00 0.00 99 1009.0
20260509033927 1 200 0.0 0.0 0.00 0.00 0.00 99 1009.0
20260509033427 1 202 0.0 0.0 0.00 0.00 0.00 99 1009.0
20260509032927 1 202 0.0 0.0 0.00 0.00 0.00 99 1008.2
20260509032427 1 90 0.0 0.0 0.00 0.00 0.00 99 1009.0
20260509031927 1 134 0.0 0.0 0.00 0.00 0.00 99 1008.2
20260509031427 2 135 0.0 0.0 0.00 0.00 0.00 99 1008.2